Time,TemperatureF,DewpointF,PressureIn,WindDirection,WindDirectionDegrees,WindSpeedMPH,WindSpeedGustMPH,Humidity,HourlyPrecipIn,Conditions,Clouds,dailyrainin,SoftwareType,DateUTC
2013-01-09 00:01:00,45.2,43.3,30.22,SSE,155,0.0,2.0,93,0.04,,,0.21,Wunderground v.1.15,2013-01-09 06:01:00,
2013-01-09 00:10:00,45.2,43.3,30.22,SSE,154,0.0,2.0,93,0.04,,,0.01,Wunderground v.1.15,2013-01-09 06:10:00,
2013-01-09 00:15:00,45.2,43.3,30.22,SSE,154,0.0,0.0,93,0.04,,,0.01,Wunderground v.1.15,2013-01-09 06:15:00,
2013-01-09 00:20:00,45.1,43.2,30.22,SSE,154,0.0,0.0,93,0.00,,,0.02,Wunderground v.1.15,2013-01-09 06:20:00,
2013-01-09 00:26:00,45.1,43.2,30.22,SSE,154,0.0,0.0,93,0.00,,,0.02,Wunderground v.1.15,2013-01-09 06:26:00,
2013-01-09 00:31:00,45.1,43.2,30.23,SSE,155,0.0,0.0,93,0.00,,,0.02,Wunderground v.1.15,2013-01-09 06:31:00,
2013-01-09 00:40:00,44.9,43.0,30.23,SSE,155,0.0,0.0,93,0.00,,,0.02,Wunderground v.1.15,2013-01-09 06:40:00,
2013-01-09 00:45:00,44.9,43.3,30.23,SSE,154,0.0,0.0,94,0.00,,,0.02,Wunderground v.1.15,2013-01-09 06:45:00,
2013-01-09 00:55:00,44.9,43.3,30.23,SSE,154,0.0,0.0,94,0.00,,,0.02,Wunderground v.1.15,2013-01-09 06:55:00,
2013-01-09 01:00:00,44.9,43.3,30.23,SSE,154,0.0,0.0,94,0.00,,,0.02,Wunderground v.1.15,2013-01-09 07:00:00,
2013-01-09 01:05:00,44.9,43.3,30.23,SSE,154,0.0,0.0,94,0.00,,,0.02,Wunderground v.1.15,2013-01-09 07:05:00,
2013-01-09 01:11:00,44.9,43.3,30.23,SSE,154,0.0,0.0,94,0.00,,,0.02,Wunderground v.1.15,2013-01-09 07:11:00,
2013-01-09 01:20:00,44.8,43.2,30.23,SSE,154,0.0,0.0,94,0.00,,,0.02,Wunderground v.1.15,2013-01-09 07:20:00,
2013-01-09 01:25:00,44.6,43.0,30.23,SSE,154,0.0,0.0,94,0.00,,,0.02,Wunderground v.1.15,2013-01-09 07:25:00,
2013-01-09 01:30:00,44.6,43.0,30.23,SSE,154,0.0,0.0,94,0.00,,,0.02,Wunderground v.1.15,2013-01-09 07:30:00,
2013-01-09 01:36:00,44.8,43.2,30.23,SSE,154,1.0,1.0,94,0.00,,,0.02,Wunderground v.1.15,2013-01-09 07:36:00,
2013-01-09 01:45:00,44.8,43.2,30.23,SSE,155,0.0,1.0,94,0.00,,,0.02,Wunderground v.1.15,2013-01-09 07:45:00,
2013-01-09 01:50:00,44.8,43.2,30.23,SSE,155,0.0,0.0,94,0.00,,,0.02,Wunderground v.1.15,2013-01-09 07:50:00,
2013-01-09 01:56:00,44.8,43.2,30.23,SSE,154,0.0,0.0,94,0.00,,,0.02,Wunderground v.1.15,2013-01-09 07:56:00,
2013-01-09 02:01:00,44.6,43.0,30.24,SSE,155,0.0,0.0,94,0.00,,,0.02,Wunderground v.1.15,2013-01-09 08:01:00,
2013-01-09 02:10:00,44.6,43.0,30.24,SSE,154,0.0,0.0,94,0.00,,,0.02,Wunderground v.1.15,2013-01-09 08:10:00,
2013-01-09 02:15:00,44.6,43.0,30.25,SSE,154,0.0,0.0,94,0.00,,,0.02,Wunderground v.1.15,2013-01-09 08:15:00,
2013-01-09 02:20:00,44.8,43.2,30.25,SSE,154,1.0,1.0,94,0.00,,,0.03,Wunderground v.1.15,2013-01-09 08:20:00,
2013-01-09 02:25:00,44.6,43.0,30.25,SSE,154,1.0,1.0,94,0.00,,,0.03,Wunderground v.1.15,2013-01-09 08:25:00,
2013-01-09 02:30:00,44.6,43.0,30.25,SSE,154,0.0,1.0,94,0.00,,,0.03,Wunderground v.1.15,2013-01-09 08:30:00,
2013-01-09 02:36:00,44.6,43.0,30.25,SSE,154,0.0,0.0,94,0.00,,,0.03,Wunderground v.1.15,2013-01-09 08:36:00,
2013-01-09 02:41:00,44.6,43.0,30.25,SSE,155,0.0,0.0,94,0.00,,,0.03,Wunderground v.1.15,2013-01-09 08:41:00,
2013-01-09 02:50:00,44.5,43.2,30.25,SSE,154,0.0,0.0,95,0.00,,,0.03,Wunderground v.1.15,2013-01-09 08:50:00,
2013-01-09 02:55:00,44.5,43.2,30.25,SSE,154,0.0,0.0,95,0.00,,,0.03,Wunderground v.1.15,2013-01-09 08:55:00,
2013-01-09 03:01:00,44.6,43.3,30.26,SSE,154,0.0,0.0,95,0.00,,,0.03,Wunderground v.1.15,2013-01-09 09:01:00,
2013-01-09 03:06:00,44.6,43.3,30.26,SSE,154,0.0,0.0,95,0.00,,,0.03,Wunderground v.1.15,2013-01-09 09:06:00,
2013-01-09 03:11:00,44.6,43.3,30.26,SSE,155,0.0,0.0,95,0.00,,,0.03,Wunderground v.1.15,2013-01-09 09:11:00,
2013-01-09 03:20:00,44.6,43.3,30.26,SSE,154,0.0,1.0,95,0.00,,,0.03,Wunderground v.1.15,2013-01-09 09:20:00,
2013-01-09 03:25:00,44.5,43.2,30.26,SSE,154,0.0,0.0,95,0.00,,,0.03,Wunderground v.1.15,2013-01-09 09:25:00,
2013-01-09 03:31:00,44.5,43.2,30.26,SSE,154,0.0,0.0,95,0.00,,,0.03,Wunderground v.1.15,2013-01-09 09:31:00,
2013-01-09 03:36:00,44.5,43.2,30.26,SSE,154,0.0,0.0,95,0.00,,,0.03,Wunderground v.1.15,2013-01-09 09:36:00,
2013-01-09 03:45:00,44.3,43.0,30.26,SSE,154,0.0,0.0,95,0.00,,,0.03,Wunderground v.1.15,2013-01-09 09:45:00,
2013-01-09 03:51:00,44.3,43.0,30.26,SSE,155,0.0,0.0,95,0.00,,,0.03,Wunderground v.1.15,2013-01-09 09:51:00,
2013-01-09 03:56:00,44.3,43.0,30.26,SSE,154,0.0,0.0,95,0.00,,,0.03,Wunderground v.1.15,2013-01-09 09:56:00,
2013-01-09 04:05:00,44.5,43.2,30.26,SSE,154,0.0,0.0,95,0.00,,,0.03,Wunderground v.1.15,2013-01-09 10:05:00,
2013-01-09 04:10:00,44.5,43.2,30.26,SSE,154,0.0,0.0,95,0.00,,,0.03,Wunderground v.1.15,2013-01-09 10:10:00,
2013-01-09 04:16:00,44.5,43.2,30.26,SSE,154,0.0,0.0,95,0.00,,,0.03,Wunderground v.1.15,2013-01-09 10:16:00,
2013-01-09 04:21:00,44.5,43.2,30.26,SSE,154,0.0,0.0,95,0.00,,,0.03,Wunderground v.1.15,2013-01-09 10:21:00,
2013-01-09 04:30:00,44.3,43.0,30.26,SSE,155,0.0,0.0,95,0.00,,,0.03,Wunderground v.1.15,2013-01-09 10:30:00,
2013-01-09 04:35:00,44.5,43.2,30.26,SSE,154,0.0,0.0,95,0.00,,,0.03,Wunderground v.1.15,2013-01-09 10:35:00,
2013-01-09 04:41:00,44.5,43.2,30.26,SSE,154,0.0,0.0,95,0.00,,,0.03,Wunderground v.1.15,2013-01-09 10:41:00,
2013-01-09 04:46:00,44.3,43.0,30.26,SSE,154,0.0,0.0,95,0.00,,,0.03,Wunderground v.1.15,2013-01-09 10:46:00,
2013-01-09 04:55:00,44.1,42.8,30.26,SSE,155,0.0,0.0,95,0.00,,,0.03,Wunderground v.1.15,2013-01-09 10:55:00,
2013-01-09 05:00:00,43.8,42.5,30.27,SSE,155,0.0,0.0,95,0.00,,,0.03,Wunderground v.1.15,2013-01-09 11:00:00,
2013-01-09 05:06:00,43.6,42.3,30.27,SSE,154,0.0,0.0,95,0.00,,,0.03,Wunderground v.1.15,2013-01-09 11:06:00,
2013-01-09 05:11:00,43.5,42.2,30.27,SSE,155,0.0,0.0,95,0.00,,,0.03,Wunderground v.1.15,2013-01-09 11:11:00,
2013-01-09 05:20:00,43.3,42.0,30.28,SSE,154,0.0,0.0,95,0.00,,,0.03,Wunderground v.1.15,2013-01-09 11:20:00,
2013-01-09 05:26:00,43.3,42.0,30.28,SSE,154,0.0,0.0,95,0.00,,,0.03,Wunderground v.1.15,2013-01-09 11:26:00,
2013-01-09 05:36:00,43.3,42.0,30.28,SSE,154,0.0,0.0,95,0.00,,,0.03,Wunderground v.1.15,2013-01-09 11:36:00,
2013-01-09 05:45:00,43.3,42.0,30.28,SSE,154,0.0,0.0,95,0.00,,,0.03,Wunderground v.1.15,2013-01-09 11:45:00,
2013-01-09 05:50:00,43.5,42.2,30.28,SSE,154,0.0,0.0,95,0.00,,,0.03,Wunderground v.1.15,2013-01-09 11:50:00,
2013-01-09 05:56:00,43.9,42.8,30.28,ESE,115,0.0,2.0,96,0.00,,,0.03,Wunderground v.1.15,2013-01-09 11:56:00,
2013-01-09 06:06:00,44.6,43.5,30.28,ESE,115,1.0,2.0,96,0.00,,,0.03,Wunderground v.1.15,2013-01-09 12:06:00,
2013-01-09 06:16:00,44.9,43.8,30.30,North,5,0.0,1.0,96,0.00,,,0.03,Wunderground v.1.15,2013-01-09 12:16:00,
2013-01-09 06:25:00,45.1,44.0,30.30,North,355,1.0,3.0,96,0.00,,,0.03,Wunderground v.1.15,2013-01-09 12:25:00,
2013-01-09 06:30:00,45.1,44.0,30.30,North,5,1.0,4.0,96,0.00,,,0.03,Wunderground v.1.15,2013-01-09 12:30:00,
2013-01-09 06:36:00,45.1,44.0,30.30,NE,34,3.0,4.0,96,0.00,,,0.03,Wunderground v.1.15,2013-01-09 12:36:00,
2013-01-09 06:41:00,45.1,44.0,30.30,North,5,4.0,4.0,96,0.00,,,0.03,Wunderground v.1.15,2013-01-09 12:41:00,
2013-01-09 06:50:00,44.9,43.8,30.31,North,360,3.0,4.0,96,0.00,,,0.03,Wunderground v.1.15,2013-01-09 12:50:00,
2013-01-09 06:55:00,44.8,43.7,30.31,NNE,24,2.0,3.0,96,0.00,,,0.03,Wunderground v.1.15,2013-01-09 12:55:00,
2013-01-09 07:00:00,44.8,43.7,30.31,NNE,19,3.0,3.0,96,0.00,,,0.03,Wunderground v.1.15,2013-01-09 13:00:00,
2013-01-09 07:11:00,44.6,43.5,30.31,NNE,19,1.0,1.0,96,0.00,,,0.03,Wunderground v.1.15,2013-01-09 13:11:00,
2013-01-09 07:20:00,44.6,43.5,30.33,NNE,19,1.0,3.0,96,0.00,,,0.03,Wunderground v.1.15,2013-01-09 13:20:00,
2013-01-09 07:25:00,44.6,43.5,30.33,NNE,19,1.0,1.0,96,0.00,,,0.03,Wunderground v.1.15,2013-01-09 13:25:00,
2013-01-09 07:30:00,44.5,43.4,30.34,NNE,19,0.0,1.0,96,0.00,,,0.03,Wunderground v.1.15,2013-01-09 13:30:00,
2013-01-09 07:36:00,44.3,43.2,30.34,NNE,19,0.0,0.0,96,0.00,,,0.03,Wunderground v.1.15,2013-01-09 13:36:00,
2013-01-09 07:41:00,43.9,42.8,30.34,NNE,19,0.0,0.0,96,0.00,,,0.03,Wunderground v.1.15,2013-01-09 13:41:00,
2013-01-09 07:50:00,43.5,42.4,30.35,NNE,19,0.0,0.0,96,0.00,,,0.03,Wunderground v.1.15,2013-01-09 13:50:00,
2013-01-09 07:55:00,43.5,42.4,30.35,NNE,19,0.0,0.0,96,0.00,,,0.03,Wunderground v.1.15,2013-01-09 13:55:00,
2013-01-09 08:00:00,43.5,42.4,30.37,NNE,19,0.0,2.0,96,0.00,,,0.03,Wunderground v.1.15,2013-01-09 14:00:00,
2013-01-09 08:05:00,43.8,42.7,30.37,NNE,19,1.0,2.0,96,0.00,,,0.03,Wunderground v.1.15,2013-01-09 14:05:00,
2013-01-09 08:10:00,43.9,42.8,30.37,NNE,19,1.0,1.0,96,0.00,,,0.03,Wunderground v.1.15,2013-01-09 14:10:00,
2013-01-09 08:15:00,43.9,42.8,30.37,North,9,1.0,1.0,96,0.00,,,0.03,Wunderground v.1.15,2013-01-09 14:15:00,
2013-01-09 08:20:00,44.1,43.0,30.37,NNE,28,2.0,2.0,96,0.00,,,0.03,Wunderground v.1.15,2013-01-09 14:20:00,
2013-01-09 08:26:00,44.1,43.0,30.37,NNE,28,2.0,2.0,96,0.00,,,0.03,Wunderground v.1.15,2013-01-09 14:26:00,
2013-01-09 08:31:00,44.1,43.0,30.38,NNE,28,1.0,1.0,96,0.00,,,0.03,Wunderground v.1.15,2013-01-09 14:31:00,
2013-01-09 08:40:00,44.1,43.0,30.38,NNE,28,1.0,2.0,96,0.00,,,0.03,Wunderground v.1.15,2013-01-09 14:40:00,
2013-01-09 08:45:00,44.1,43.0,30.38,North,360,1.0,3.0,96,0.00,,,0.03,Wunderground v.1.15,2013-01-09 14:45:00,
2013-01-09 08:51:00,44.2,43.1,30.38,NNE,24,2.0,3.0,96,0.00,,,0.03,Wunderground v.1.15,2013-01-09 14:51:00,
2013-01-09 08:56:00,44.2,43.1,30.38,NNE,32,3.0,5.0,96,0.00,,,0.03,Wunderground v.1.15,2013-01-09 14:56:00,
2013-01-09 09:05:00,44.2,43.1,30.38,NE,40,2.0,3.0,96,0.00,,,0.03,Wunderground v.1.15,2013-01-09 15:05:00,
2013-01-09 09:10:00,44.3,43.2,30.38,NE,40,2.0,2.0,96,0.00,,,0.03,Wunderground v.1.15,2013-01-09 15:10:00,
2013-01-09 09:15:00,44.5,43.4,30.39,NE,40,0.0,2.0,96,0.00,,,0.03,Wunderground v.1.15,2013-01-09 15:15:00,
2013-01-09 09:21:00,44.6,43.5,30.39,NE,40,0.0,0.0,96,0.00,,,0.03,Wunderground v.1.15,2013-01-09 15:21:00,
2013-01-09 09:26:00,44.8,43.7,30.39,NE,40,0.0,0.0,96,0.00,,,0.03,Wunderground v.1.15,2013-01-09 15:26:00,
2013-01-09 09:35:00,44.9,43.8,30.38,North,5,2.0,2.0,96,0.00,,,0.03,Wunderground v.1.15,2013-01-09 15:35:00,
2013-01-09 09:40:00,45.1,44.0,30.38,NNE,28,3.0,3.0,96,0.00,,,0.03,Wunderground v.1.15,2013-01-09 15:40:00,
2013-01-09 09:45:00,45.1,44.0,30.39,NE,38,2.0,4.0,96,0.00,,,0.03,Wunderground v.1.15,2013-01-09 15:45:00,
2013-01-09 09:50:00,45.2,44.1,30.39,NE,34,2.0,2.0,96,0.00,,,0.03,Wunderground v.1.15,2013-01-09 15:50:00,
2013-01-09 09:56:00,45.4,44.3,30.39,NE,34,2.0,3.0,96,0.00,,,0.03,Wunderground v.1.15,2013-01-09 15:56:00,
2013-01-09 10:05:00,46.0,44.9,30.40,NE,37,1.0,4.0,96,0.00,,,0.03,Wunderground v.1.15,2013-01-09 16:05:00,
2013-01-09 10:10:00,45.8,44.7,30.40,NE,36,1.0,4.0,96,0.00,,,0.03,Wunderground v.1.15,2013-01-09 16:10:00,
2013-01-09 10:15:00,46.0,44.9,30.40,NE,36,2.0,2.0,96,0.00,,,0.03,Wunderground v.1.15,2013-01-09 16:15:00,
2013-01-09 10:21:00,46.2,45.1,30.40,NNE,19,2.0,4.0,96,0.00,,,0.03,Wunderground v.1.15,2013-01-09 16:21:00,
2013-01-09 10:26:00,46.2,45.1,30.40,NNE,28,2.0,2.0,96,0.00,,,0.03,Wunderground v.1.15,2013-01-09 16:26:00,
2013-01-09 10:35:00,46.2,44.8,30.39,NNE,32,4.0,4.0,95,0.00,,,0.03,Wunderground v.1.15,2013-01-09 16:35:00,
2013-01-09 10:40:00,46.7,45.3,30.39,NNE,33,4.0,4.0,95,0.00,,,0.03,Wunderground v.1.15,2013-01-09 16:40:00,
2013-01-09 10:45:00,47.3,45.9,30.39,NNE,22,3.0,4.0,95,0.00,,,0.03,Wunderground v.1.15,2013-01-09 16:45:00,
2013-01-09 10:51:00,47.9,46.3,30.39,NNE,30,1.0,3.0,94,0.00,,,0.03,Wunderground v.1.15,2013-01-09 16:51:00,
2013-01-09 10:56:00,48.2,46.3,30.39,NNE,33,1.0,3.0,93,0.00,,,0.03,Wunderground v.1.15,2013-01-09 16:56:00,
2013-01-09 11:05:00,49.4,46.6,30.38,NE,41,1.0,1.0,90,0.00,,,0.03,Wunderground v.1.15,2013-01-09 17:05:00,
2013-01-09 11:10:00,49.8,46.1,30.38,NE,44,1.0,3.0,87,0.00,,,0.03,Wunderground v.1.15,2013-01-09 17:10:00,
2013-01-09 11:15:00,50.2,44.9,30.38,ENE,78,1.0,3.0,82,0.00,,,0.03,Wunderground v.1.15,2013-01-09 17:15:00,
2013-01-09 11:21:00,50.5,44.2,30.38,NE,46,2.0,2.0,79,0.00,,,0.03,Wunderground v.1.15,2013-01-09 17:21:00,
2013-01-09 11:30:00,51.4,44.4,30.37,NNE,25,2.0,3.0,77,0.00,,,0.03,Wunderground v.1.15,2013-01-09 17:30:00,
2013-01-09 11:35:00,51.4,43.0,30.37,NE,37,3.0,3.0,73,0.00,,,0.03,Wunderground v.1.15,2013-01-09 17:35:00,
2013-01-09 11:41:00,51.6,42.9,30.37,NE,51,3.0,3.0,72,0.00,,,0.03,Wunderground v.1.15,2013-01-09 17:41:00,
2013-01-09 11:50:00,52.2,42.7,30.36,NE,46,3.0,3.0,70,0.00,,,0.03,Wunderground v.1.15,2013-01-09 17:50:00,
2013-01-09 11:55:00,52.5,42.6,30.36,NE,40,2.0,3.0,69,0.00,,,0.03,Wunderground v.1.15,2013-01-09 17:55:00,
2013-01-09 12:00:00,52.6,42.7,30.36,ENE,57,2.0,2.0,69,0.00,,,0.03,Wunderground v.1.15,2013-01-09 18:00:00,
2013-01-09 12:10:00,53.3,42.6,30.36,NE,38,1.0,1.0,67,0.00,,,0.03,Wunderground v.1.15,2013-01-09 18:10:00,
2013-01-09 12:16:00,53.5,42.4,30.35,NE,40,2.0,3.0,66,0.00,,,0.03,Wunderground v.1.15,2013-01-09 18:16:00,
2013-01-09 12:26:00,54.1,41.8,30.35,NE,44,3.0,7.0,63,0.00,,,0.03,Wunderground v.1.15,2013-01-09 18:26:00,
2013-01-09 12:41:00,54.8,40.7,30.35,NNE,24,2.0,2.0,59,0.00,,,0.03,Wunderground v.1.15,2013-01-09 18:41:00,
2013-01-09 12:46:00,55.1,41.0,30.35,NE,48,2.0,2.0,59,0.00,,,0.03,Wunderground v.1.15,2013-01-09 18:46:00,
2013-01-09 12:51:00,55.3,41.2,30.35,NE,44,2.0,2.0,59,0.00,,,0.03,Wunderground v.1.15,2013-01-09 18:51:00,
2013-01-09 12:55:00,55.4,41.3,30.35,NE,42,3.0,3.0,59,0.00,,,0.03,Wunderground v.1.15,2013-01-09 18:55:00,
2013-01-09 13:06:00,55.7,40.2,30.35,NNE,30,2.0,6.0,56,0.00,,,0.03,Wunderground v.1.15,2013-01-09 19:06:00,
2013-01-09 13:16:00,55.9,41.3,30.34,NNE,32,2.0,2.0,58,0.00,,,0.03,Wunderground v.1.15,2013-01-09 19:16:00,
2013-01-09 21:41:00,49.6,36.3,30.34,ENE,69,2.0,3.0,60,0.00,,,0.03,Wunderground v.1.15,2013-01-10 03:41:00,
2013-01-09 21:45:00,49.5,36.2,30.33,ENE,63,2.0,3.0,60,0.00,,,0.03,Wunderground v.1.15,2013-01-10 03:45:00,
2013-01-09 21:55:00,49.4,36.1,30.33,East,81,1.0,1.0,60,0.00,,,0.03,Wunderground v.1.15,2013-01-10 03:55:00,
2013-01-09 22:00:00,49.4,36.5,30.33,ENE,72,1.0,3.0,61,0.00,,,0.03,Wunderground v.1.15,2013-01-10 04:00:00,
2013-01-09 22:10:00,49.5,36.2,30.33,NE,40,1.0,3.0,60,0.00,,,0.03,Wunderground v.1.15,2013-01-10 04:10:00,
2013-01-09 22:20:00,49.6,35.4,30.32,NE,34,1.0,1.0,58,0.00,,,0.03,Wunderground v.1.15,2013-01-10 04:20:00,
2013-01-09 22:31:00,49.8,34.3,30.32,SE,128,1.0,2.0,55,0.00,,,0.03,Wunderground v.1.15,2013-01-10 04:31:00,
2013-01-09 22:40:00,50.1,34.1,30.32,East,90,3.0,6.0,54,0.00,,,0.03,Wunderground v.1.15,2013-01-10 04:40:00,
2013-01-09 22:45:00,50.2,33.7,30.32,ENE,76,2.0,3.0,53,0.00,,,0.03,Wunderground v.1.15,2013-01-10 04:45:00,
2013-01-09 22:56:00,50.2,33.7,30.32,ENE,71,2.0,2.0,53,0.00,,,0.03,Wunderground v.1.15,2013-01-10 04:56:00,
2013-01-09 23:05:00,50.1,34.1,30.32,ESE,105,1.0,2.0,54,0.00,,,0.03,Wunderground v.1.15,2013-01-10 05:05:00,
2013-01-09 23:11:00,50.1,33.6,30.32,East,81,1.0,1.0,53,0.00,,,0.03,Wunderground v.1.15,2013-01-10 05:11:00,
2013-01-09 23:20:00,49.9,33.4,30.30,ESE,102,1.0,1.0,53,0.00,,,0.03,Wunderground v.1.15,2013-01-10 05:20:00,
2013-01-09 23:26:00,49.8,32.9,30.30,NE,56,1.0,1.0,52,0.00,,,0.03,Wunderground v.1.15,2013-01-10 05:26:00,
2013-01-09 23:30:00,49.8,33.3,30.30,North,355,1.0,1.0,53,0.00,,,0.03,Wunderground v.1.15,2013-01-10 05:30:00,
2013-01-09 23:40:00,49.9,33.0,30.30,SE,127,2.0,3.0,52,0.00,,,0.03,Wunderground v.1.15,2013-01-10 05:40:00,
2013-01-09 23:51:00,49.8,33.3,30.30,SE,129,2.0,6.0,53,0.00,,,0.03,Wunderground v.1.15,2013-01-10 05:51:00,